Theta_e
349 358 365 366 363 362 361 359 358 355 355 356 358 359 361 361 360 361 362 362 361 359 357 353 351 352 353 352 352 355 354 354 355 355 352 351 353 354 357 355 355 348 354
353 358 365 366 363 363 361 359 357 356 357 357 357 358 359 360 359 359 359 359 359 356 353 351 351 351 351 350 350 351 352 351 353 354 349 347 352 351 355 355 357 352 355
353 358 362 365 364 363 362 360 358 358 359 357 358 358 358 358 357 356 358 357 356 353 352 351 351 351 350 349 348 347 350 352 354 354 349 340 340 353 350 354 355 355 353
355 356 359 364 364 363 362 361 359 359 359 358 358 358 359 358 357 356 356 356 353 351 350 350 350 351 349 348 346 344 346 349 352 349 338 337 339 355 353 355 355 354 351
352 354 359 363 363 363 361 360 359 360 361 359 358 358 358 358 357 356 356 356 352 350 349 349 350 351 349 347 346 346 346 347 347 342 331 330 331 350 358 357 355 353 350
351 355 361 363 363 362 361 360 360 360 360 359 358 357 357 357 356 356 355 354 353 350 349 349 350 350 350 348 348 347 347 347 346 333 331 331 339 353 358 356 355 352 352
351 355 358 362 363 362 360 359 360 360 361 360 357 357 356 356 355 354 354 353 351 350 350 349 350 351 351 350 350 349 349 346 337 333 331 331 335 354 358 357 357 354 350
350 354 357 362 362 362 361 361 360 360 360 360 359 358 357 356 355 354 353 352 351 352 353 352 353 351 350 349 349 349 349 346 340 333 332 328 339 354 358 357 356 357 350
349 351 353 356 358 361 361 361 360 359 359 359 359 358 358 356 356 355 354 353 353 353 353 353 353 352 350 349 349 349 348 346 335 334 336 332 340 353 358 358 355 353 350
346 348 350 352 353 354 355 359 359 359 359 359 358 357 358 357 356 355 355 355 353 353 352 352 352 352 351 349 349 349 347 345 335 333 334 333 344 350 358 356 353 352 350
343 344 348 349 349 351 351 354 358 358 357 358 356 357 355 351 350 353 354 353 354 353 352 352 352 351 351 351 350 350 346 335 332 334 334 343 347 350 357 354 352 350 349
339 341 345 346 347 348 351 350 350 349 350 351 351 350 350 347 346 352 353 356 355 356 354 352 352 352 351 341 341 348 340 336 334 335 338 351 353 352 355 354 351 350 348
339 339 341 342 345 344 343 345 349 347 347 348 348 347 347 346 345 346 346 348 350 353 347 347 345 344 340 338 337 331 333 336 335 336 340 351 353 353 349 351 349 349 349
339 337 337 339 340 340 340 343 345 345 345 345 346 344 343 343 338 337 337 339 341 345 345 341 340 340 338 337 333 330 329 331 335 335 338 346 350 346 348 348 344 344 346
338 337 336 338 338 337 337 342 343 341 343 343 342 342 342 339 335 334 334 334 338 341 342 340 339 338 337 336 335 332 338 338 340 340 339 346 347 343 341 343 340 340 338
331 338 337 338 338 339 338 341 342 340 340 340 340 340 341 339 338 337 337 336 338 341 341 340 339 337 336 334 334 336 339 338 337 336 337 337 345 342 342 344 344 343 340
331 333 338 338 339 339 338 341 342 341 341 340 340 340 340 340 340 340 340 339 337 337 338 338 336 334 332 334 335 337 335 334 334 333 333 333 337 345 344 344 344 343 340
330 328 339 340 339 337 340 342 343 343 342 340 340 340 340 340 340 337 337 337 338 338 336 335 335 334 332 333 331 330 330 330 331 331 332 332 333 334 339 345 344 343 339
337 331 330 337 338 337 338 341 342 341 341 339 338 338 340 340 335 332 331 332 339 339 340 335 332 331 329 328 328 327 328 327 328 332 331 332 332 334 332 335 337 338 333
344 338 337 337 337 336 337 338 339 338 338 338 335 333 335 336 338 337 335 332 331 333 335 333 332 329 326 327 330 327 327 327 328 329 331 332 332 334 334 331 331 332 331
345 344 345 342 338 339 341 341 338 337 338 337 331 334 337 337 335 334 337 333 330 334 336 335 328 328 327 327 324 322 323 326 326 326 328 328 330 332 330 325 329 327 328
341 343 343 343 345 348 347 345 345 342 339 335 335 337 341 342 340 335 332 330 329 331 333 331 327 326 326 327 325 321 317 320 321 325 325 327 327 327 326 321 322 321 321
337 338 338 338 341 340 342 345 345 342 339 335 335 333 335 337 338 336 335 330 329 329 330 333 330 327 330 325 326 322 314 312 311 317 321 325 325 323 322 319 319 320 316
337 337 336 336 336 340 339 336 333 333 333 332 333 334 335 337 332 339 336 335 331 331 330 332 333 334 330 326 324 325 322 317 312 311 318 319 320 319 317 315 315 316 314
334 335 335 333 334 336 335 335 333 331 334 335 336 332 335 334 338 337 336 336 334 333 335 336 333 331 331 328 323 322 320 319 318 315 312 314 316 316 317 316 314 311 312
330 331 331 331 331 333 334 335 333 329 328 329 329 330 330 330 329 328 328 327 327 332 333 333 332 330 326 324 322 320 318 315 312 311 311 310 309 311 312 313 313 312 312
Wind_Speed
8 11 17 18 17 17 16 16 15 14 14 15 16 17 17 16 16 16 16 16 14 14 14 13 12 11 11 10 8 7 7 7 10 9 8 7 7 7 8 9 11 11 12
16 13 18 19 18 17 16 16 16 15 14 14 14 15 15 14 14 14 14 14 13 13 12 12 11 10 10 9 7 4 5 7 9 7 4 2 6 7 7 5 14 10 12
15 12 14 19 18 18 16 16 16 15 14 14 14 13 13 13 13 13 12 12 12 12 11 10 9 9 8 8 5 3 3 3 7 5 3 1 3 8 9 10 12 13 13
14 10 11 17 17 17 17 16 16 15 15 15 14 13 13 12 12 12 10 10 11 10 9 8 7 7 6 6 4 1 1 3 4 5 3 3 6 12 11 12 13 13 14
10 8 12 17 17 16 17 16 15 15 15 15 14 13 13 12 11 10 9 9 9 9 7 6 6 6 5 4 4 3 2 4 5 3 2 6 4 11 14 13 13 13 14
12 9 15 18 17 16 16 16 16 15 14 14 14 12 12 11 10 9 9 9 9 9 9 8 7 6 6 6 5 4 4 5 6 4 2 6 6 10 14 14 15 15 15
13 11 13 18 18 17 17 16 15 15 14 13 13 13 12 11 11 10 10 11 10 10 10 10 9 7 7 8 7 6 5 6 4 4 4 6 3 10 14 15 16 16 16
18 14 13 18 18 17 16 15 15 14 13 13 13 12 12 12 12 12 12 11 12 11 11 11 11 11 11 11 9 8 7 9 6 2 3 3 7 9 13 14 13 16 16
14 14 12 12 14 16 15 14 14 14 14 14 14 13 14 14 14 14 13 13 13 13 13 14 14 13 13 11 10 9 8 11 6 2 5 4 8 14 17 15 16 15 15
12 11 12 13 11 9 9 16 15 14 14 14 14 14 14 15 15 15 13 13 14 14 14 13 13 13 13 12 11 12 12 14 5 4 4 4 12 14 17 14 12 11 12
10 8 9 11 12 11 9 11 15 18 17 16 15 15 12 5 5 8 10 14 16 17 17 17 18 18 18 17 16 16 15 4 5 5 3 10 13 14 16 12 12 10 10
13 11 9 11 12 12 10 9 8 8 7 8 8 8 6 7 7 10 14 19 19 18 17 17 17 16 13 5 5 14 5 7 6 6 3 8 6 12 14 13 11 12 11
16 12 14 11 12 13 10 7 5 6 6 6 9 8 6 6 5 5 4 5 6 12 6 8 8 8 8 5 5 4 5 6 3 4 6 8 9 11 10 10 10 11 11
16 17 16 13 12 13 8 8 9 8 7 7 9 8 6 5 5 5 4 4 4 4 7 6 5 9 9 7 7 8 8 5 4 1 4 10 7 8 10 11 7 9 10
16 16 17 15 14 13 11 8 7 8 8 9 8 9 8 7 6 5 7 6 6 6 7 7 8 8 9 9 9 9 7 7 5 2 3 11 9 7 6 8 10 13 14
10 16 16 17 16 14 12 11 10 9 10 8 7 9 12 8 7 7 8 7 7 7 8 8 9 9 9 6 8 9 8 4 4 4 2 3 8 12 17 20 21 21 20
11 10 19 19 17 15 15 12 9 10 10 9 9 11 12 11 10 11 9 7 8 6 8 7 6 5 4 5 8 7 5 5 3 2 4 3 5 16 21 24 26 23 22
5 8 15 16 18 15 14 12 10 10 10 9 9 9 13 14 14 3 2 3 3 2 4 4 4 4 3 5 4 3 3 3 4 4 5 6 8 9 16 25 27 26 16
6 7 6 12 16 15 11 10 10 11 10 9 9 6 7 7 6 5 4 4 2 2 3 3 3 4 4 4 4 3 3 3 4 5 9 11 12 11 7 10 5 6 10
17 6 7 5 5 2 2 1 3 3 5 4 5 5 9 8 9 6 5 6 6 4 3 3 6 3 1 1 1 3 4 5 6 8 12 11 10 11 9 7 4 7 14
20 19 15 5 7 3 1 2 4 6 4 3 2 8 6 1 3 5 5 3 1 3 4 5 2 4 1 2 2 4 4 8 10 9 7 6 7 7 6 6 5 6 10
18 17 15 13 12 7 4 3 3 3 4 6 6 6 9 16 23 16 10 5 3 4 4 3 5 3 3 6 3 2 2 2 3 3 4 5 5 4 4 5 6 7 6
20 18 17 16 13 13 17 8 8 5 3 5 5 5 6 4 8 9 9 7 6 4 6 5 6 8 7 4 5 2 2 4 1 2 3 1 2 3 3 4 9 10 8
13 15 16 16 15 14 13 12 11 7 8 5 3 3 4 7 9 8 14 13 12 9 9 7 7 7 4 4 3 3 1 3 3 2 2 3 3 5 5 4 5 8 8
13 12 11 12 14 15 12 8 6 6 4 2 3 5 5 2 5 6 7 11 9 7 7 5 3 4 5 3 3 3 2 2 1 2 2 4 4 3 4 4 2 3 5
10 11 12 12 13 14 13 12 8 7 5 4 5 5 5 3 0 3 4 5 4 3 2 2 3 4 3 3 3 3 3 3 2 3 1 2 2 4 3 2 2 2 2
Wind_Direction
169 171 157 151 143 138 132 126 117 108 103 100 102 102 103 105 107 111 111 112 112 114 119 120 122 117 114 112 114 117 123 109 93 93 106 123 138 142 144 148 153 140 137
144 160 152 148 144 140 136 132 127 124 119 112 109 108 108 107 109 110 112 115 117 120 121 125 127 125 125 123 123 116 99 89 90 89 97 147 168 154 146 141 162 147 142
139 146 147 146 146 141 139 135 132 131 127 124 123 121 118 116 116 116 118 121 124 127 131 133 133 133 136 128 124 104 65 63 86 79 5 310 241 184 164 151 150 157 151
127 136 143 145 144 142 141 140 139 139 135 136 136 135 135 134 132 130 130 133 137 139 146 145 145 145 145 133 128 133 12 354 43 51 350 281 248 198 176 172 168 170 163
120 131 149 143 142 145 146 145 145 145 146 148 147 147 147 148 146 144 144 144 146 151 155 158 162 164 162 165 182 228 289 318 332 46 315 304 316 180 181 182 179 174 172
138 140 148 144 145 149 152 153 152 153 153 154 154 156 156 157 155 153 157 160 163 170 173 180 182 187 192 204 221 246 265 295 317 333 334 296 261 186 182 186 186 179 181
140 144 147 150 149 154 159 158 157 162 162 160 161 164 166 167 167 172 177 179 179 183 187 191 189 193 209 216 228 239 263 280 286 289 323 325 247 185 187 193 196 182 171
151 154 153 154 153 158 162 162 164 167 166 167 171 175 177 179 182 185 188 191 193 193 195 196 197 199 213 218 225 234 243 259 269 317 306 281 278 229 203 198 194 180 178
155 154 156 157 159 160 166 168 169 173 175 179 180 183 185 188 191 195 197 198 201 202 202 203 206 208 218 224 230 238 245 259 267 219 276 252 233 229 213 201 194 184 182
159 162 161 159 156 162 173 176 177 182 185 187 190 192 194 198 201 204 205 209 211 213 214 214 217 219 223 229 233 238 241 254 256 249 238 241 259 247 217 202 200 195 189
158 165 172 164 160 161 171 183 185 191 194 196 200 201 200 200 212 215 218 222 224 222 220 217 216 216 216 217 221 230 238 231 219 237 231 264 260 237 204 201 199 205 202
169 168 188 173 172 163 175 183 183 192 199 203 204 201 199 196 202 209 219 225 228 228 229 230 231 234 239 247 249 240 227 226 216 234 232 260 228 195 191 196 199 204 211
179 164 183 191 181 173 180 177 187 194 199 207 208 199 202 210 223 231 244 251 246 247 247 244 241 235 230 220 221 236 244 251 242 226 215 225 182 183 195 213 209 220 220
181 172 175 192 188 189 186 180 191 195 197 205 208 199 194 207 203 219 228 221 223 217 231 221 224 227 230 219 206 215 224 224 210 215 229 223 220 227 220 202 213 241 246
179 180 179 183 195 195 195 184 191 205 202 210 205 204 199 200 203 197 220 215 218 214 214 212 223 228 225 222 220 220 217 207 192 157 209 227 207 184 233 219 238 229 221
177 185 179 190 199 194 195 194 194 192 206 203 206 212 203 205 210 213 221 216 217 207 216 222 222 222 225 207 216 210 205 183 163 170 203 235 210 204 218 228 231 225 226
265 185 188 191 200 192 198 197 198 198 198 203 207 207 206 201 212 220 219 215 210 201 212 222 224 229 219 205 204 195 175 155 149 211 257 269 268 234 228 231 234 231 228
224 231 196 192 200 196 197 196 198 203 201 204 208 204 205 207 215 222 249 270 322 243 196 217 204 208 208 200 219 172 152 174 212 221 242 243 245 244 248 240 244 237 234
323 190 221 204 201 198 199 197 201 196 200 204 206 198 191 196 131 140 200 217 197 240 231 198 223 188 199 196 196 196 211 233 234 226 233 235 240 235 220 220 236 233 187
23 74 61 352 326 266 244 321 330 274 243 183 133 148 161 159 172 188 227 220 183 142 231 206 221 195 200 171 282 278 263 235 229 231 229 232 228 215 208 195 169 176 206
29 35 25 24 307 328 217 170 246 211 222 78 108 151 136 115 211 259 294 306 220 212 205 212 145 162 179 188 251 248 248 230 227 231 234 235 217 207 193 175 172 190 208
22 19 31 23 13 345 335 309 282 312 56 69 37 3 15 32 343 304 339 351 332 315 314 210 186 192 195 191 220 203 281 309 273 258 242 227 224 205 199 177 179 185 194
27 22 24 24 21 14 24 350 347 7 56 75 30 55 333 26 355 283 295 290 299 253 272 252 202 196 236 187 196 208 186 217 277 316 323 340 292 230 239 199 186 194 195
30 25 24 18 18 16 30 28 37 17 35 26 323 290 210 119 234 245 254 278 280 275 261 242 225 223 201 177 180 199 185 134 174 324 320 318 264 245 240 208 187 201 197
33 28 16 13 14 9 23 21 21 18 40 349 348 319 20 55 1 352 288 269 256 240 240 213 180 200 205 190 160 157 145 160 124 169 258 323 345 297 268 258 212 212 204
35 28 24 12 9 5 14 25 20 9 7 44 29 19 358 5 301 333 317 298 317 325 316 246 235 217 164 143 144 163 149 156 165 147 184 278 287 308 336 1 320 292 217